Location: Islay
(41.3172°N, 105.1346°W)
Time: 20:22:05
(UTC+00:00)

Envisat - Visible Passes

Search period start: 10 April 2026 00:00
Search period end: 20 April 2026 00:00
Orbit: 761 x 762 km, 98.4° (Epoch: 10 April)

Date Brightness Start Highest point End Pass type
(mag) Time Alt. Az. Time Alt. Az. Time Alt. Az.
10 Apr 3.2 09:34:39 10° NNE 09:39:16 69° NE 09:39:16 69° NE visible
10 Apr 4.8 11:15:24 10° NNW 11:18:01 14° WNW 11:19:23 13° WNW visible
11 Apr 4.5 08:57:16 10° NNE 09:01:07 31° E 09:01:07 31° E visible
11 Apr 3.9 10:36:16 10° N 10:40:38 30° WNW 10:41:15 29° W visible
12 Apr 5.5 08:21:00 10° ENE 08:22:58 14° E 08:22:58 14° E visible
12 Apr 2.9 09:58:00 10° N 10:03:02 66° WNW 10:03:06 66° WNW visible
13 Apr 3.5 09:20:15 10° NNE 09:24:57 53° E 09:24:57 53° E visible
13 Apr 4.5 11:00:14 10° NNW 11:03:43 19° WNW 11:05:04 17° W visible
14 Apr 4.8 08:43:09 10° NE 08:46:48 24° E 08:46:48 24° E visible
14 Apr 3.5 10:21:32 10° N 10:26:15 40° WNW 10:26:55 38° W visible
15 Apr 2.8 09:43:28 10° NNE 09:48:34 90° WSW 09:48:46 83° SSW visible
15 Apr 5.0 11:24:57 10° NW 11:26:42 12° WNW 11:28:28 10° W visible
16 Apr 4.0 09:05:56 10° NNE 09:10:37 39° E 09:10:37 39° E visible
16 Apr 4.2 10:45:18 10° NNW 10:49:22 25° WNW 10:50:45 22° W visible
17 Apr 5.2 08:29:15 10° NE 08:32:27 17° E 08:32:27 17° E visible
17 Apr 3.1 10:06:53 10° N 10:11:49 54° WNW 10:12:35 49° WSW visible
18 Apr 3.1 09:29:00 10° NNE 09:34:04 67° ESE 09:34:26 64° SE visible
18 Apr 4.7 11:09:26 10° NNW 11:12:25 16° WNW 11:14:34 12° W visible
19 Apr 4.4 08:51:42 10° NE 08:56:06 29° E 08:56:16 29° E visible
19 Apr 3.8 10:30:29 10° N 10:35:00 33° WNW 10:36:24 28° W visible
